Terminal Aerodrome Forecast
Issued by NWS Mt. Holly, NJ

Home | Current Version | Previous Version | Text Only | Print | Product List | Glossary On
Versions: 1 2 3 4 5 6 7 8 9 10 11 12 13 14 15 16 17 18 19 20 21
000
FTUS41 KPHI 301008 AAB
TAFILG
TAF AMD
KILG 301008Z 3010/0106 04015G25KT P6SM OVC008
      TEMPO 3010/3013 2SM SHRA
     FM301500 04014G24KT P6SM OVC009
     FM010000 05008KT P6SM OVC007=

USA.gov is the U.S. government's official web portal to all federal, state and local government web resources and services.